User: anonymous   Login
Location: Fort Frances
(48.6170°N, 93.4170°W)
Time: 02:16:19
(UTC-05:00)
Language:

CZ-2C R/B - Orbit

View from above orbital plane
View from above orbital plane
View from above satellite
View from above satellite

Ground track
Ground track

The orbit data is extracted from the following two-line orbital elements,

1 36089U 09061B   15107.51363484  .00000391  00000-0  10943-3 0  9993
2 36089 098.0758 133.1463 0081443 324.0219 202.7006 14.49412843287023
Epoch (UTC): 17 April 2015 12:19:38
Eccentricity: 0.0081443
inclination: 98.0758°
perigee height: 670 km
apogee height: 785 km
right ascension of ascending node: 133.1463°
argument of perigee: 324.0219°
revolutions per day: 14.49412843
mean anomaly at epoch: 202.7006°
orbit number at epoch: 28702

The dashed part of the orbit path shows where the satellite is in the earth's shadow,  

DLR